Regional Weather Roundup
Issued by NWS Mt. Holly, NJ

Home | Current Version | Previous Version | Text Only | Print | Product List | Glossary On
Versions: 1 2 3 4 5 6 7 8 9 10 11 12 13 14 15 16 17 18 19 20 21 22 23 24 25 26 27 28 29 30 31 32 33 34 35 36 37 38 39 40 41 42 43 44 45 46 47 48
000
ASUS41 KPHI 121510
RWRPHI

REGIONAL WEATHER ROUNDUP
NATIONAL WEATHER SERVICE MOUNT HOLLY NJ
1100 AM EDT SAT JUL 12 2014

NOTE:  "FAIR" INDICATES FEW OR NO CLOUDS BELOW 12,000 FEET WITH NO
SIGNIFICANT WEATHER AND/OR OBSTRUCTIONS TO VISIBILITY.

 * = STATION DOES NOT REPORT PRECIPITATION (E.G. RAIN, SNOW, ETC.)
        OR FOG.

NJZ015>026-121600-
SOUTHERN NEW JERSEY

CITY           SKY/WX    TMP DP  RH WIND       PRES   REMARKS
POMONA         SUNNY     80  62  54 E5        30.23S
RIO GRANDE*    MOSUNNY   79  66  65 SE8       30.25S
MILLVILLE      SUNNY     79  68  69 E5        30.23S
MOUNT HOLLY    SUNNY     81  62  52 VRB3      30.22S
TRENTON        MOSUNNY   80  63  55 SW3       30.22S

$$
NJZ001>014-121600-
NORTHERN NEW JERSEY

CITY           SKY/WX    TMP DP  RH WIND       PRES   REMARKS
SUSSEX         MOSUNNY   80  66  62 SW6       30.22F
ANDOVER*         N/A     78  66  66 VRB3      30.23F
MORRISTOWN     PTSUNNY   82  63  51 SW3       30.22F
NEWARK         MOSUNNY   84  60  44 W6        30.22S
TETERBORO      MOSUNNY   84  59  42 S8        30.21F
CALDWELL       MOSUNNY   80  62  54 CALM      30.23S
SOMERVILLE     MOSUNNY   80  65  59 S5        30.20F
ALLAIRE*       SUNNY     81  63  54 CALM      30.23S
TOMS RIVER*    SUNNY     82  63  51 CALM      30.23S

$$
PAZ043-044-047-054-055-060>062-066>071-121600-
EASTERN PENNSYLVANIA

CITY           SKY/WX    TMP DP  RH WIND       PRES   REMARKS
PHILADELPHIA   MOSUNNY   80  64  58 CALM      30.22S
NORTH PHILA    MOSUNNY   83  61  47 VRB5      30.24S
BLUE BELL      MOSUNNY   81  68  65 SE3       30.22S
DOYLESTOWN     MOSUNNY   78  66  66 CALM      30.22S
QUAKERTOWN*    MOSUNNY   79  66  65 S5        30.24S
POTTSTOWN      MOSUNNY   80  66  62 SW6       30.24S
LANCASTER      PTSUNNY   80  70  71 S7        30.21F
COATESVILLE    MOSUNNY   79  70  73 SW3       30.24S
READING        PTSUNNY   81  68  64 VRB3      30.21S
ALLENTOWN      MOSUNNY   81  64  56 S6        30.22F
MOUNT POCONO   PTSUNNY   74  62  66 SW10      30.27S
HAZLETON       MOSUNNY   77  66  69 SW6       30.27F
WILKES BARRE   MOSUNNY   80  66  62 N3        30.21F

$$
DEZALL-MDZ008-012-015-019-020-121600-
DELAWARE AND EASTERN MARYLAND

CITY           SKY/WX    TMP DP  RH WIND       PRES   REMARKS
WILMINGTON     MOSUNNY   80  71  74 S7        30.23S
GEORGETOWN     SUNNY     79  67  66 VRB5      30.23F
EASTON           N/A     81  72  74 CALM      30.26S
PATUXENT       PTSUNNY   80  71  74 SE5       30.23R
OCEAN CITY     SUNNY     76  69  79 E6        30.24S
WALLOPS ISLAND SUNNY     79  69  71 E7        30.24S
CAMBRIDGE      PTSUNNY   81  68  65 CALM      30.22S
SALISBURY      SUNNY     82  68  62 CALM      30.23S

$$
PAZ001-021-NYZ056-072-MDZ011-DCZ001-121600-
OTHER NEARBY LOCATIONS

CITY           SKY/WX    TMP DP  RH WIND       PRES   REMARKS
HARRISBURG     PTSUNNY   85  69  58 S8        30.19F
STATE COLLEGE  SUNNY     77  66  69 CALM      30.21F
WILLIAMSPORT   PTSUNNY   76  64  66 S3        30.18F
BINGHAMTON     SUNNY     76  64  66 SW7G16    30.21F
NEW YORK CITY  SUNNY     80  60  50 VRB3      30.25S
BALTIMORE      PTSUNNY   82  67  60 S8        30.21S
WASHINGTON DC  PTSUNNY   83  70  64 S9        30.21F

$$


USA.gov is the U.S. government's official web portal to all federal, state and local government web resources and services.